[[{"header":{"parameterUnit":"m.s-1","parameterCategory":2,"la1":30.2992,"la2":30.254,"lo1":-89.0895,"lo2":-89.0443,"dy":0.0025,"dx":0.0025,"nx":19,"ny":19,"refTime":"2026-04-30T03:00:00:Z","depth":"0","parameterNumber":2,"parameterNumberName":"U-component_of_CURRENTS"},"data":[0,0,0,-0.2027,-0.2027,-0.2068,-0.2069,-0.207,-0.2069,0,0,0,0,0,0,0,0,0,0,0,-0.2028,-0.2028,-0.2027,-0.2027,-0.2068,-0.2069,-0.207,-0.2069,0,0,0,0,0,0,0,0,0,0,0,-0.2028,-0.2028,-0.2028,-0.2027,-0.2068,-0.2069,-0.207,-0.2058,0,0,0,0,0,0,0,0,0,0,-0.2027,-0.2007,-0.2028,-0.2028,-0.2027,-0.2068,-0.2069,-0.2058,-0.2058,-0.2028,0,-0.2029,0,-0.2029,-0.2066,-0.2066,0,0,0,-0.2053,-0.2006,-0.2028,-0.2028,-0.2027,-0.2068,-0.2057,-0.2059,-0.2059,-0.2028,-0.2029,-0.2029,-0.2029,-0.2065,-0.2065,-0.2064,-0.2064,0,0,-0.205,-0.2025,-0.2028,-0.2028,-0.2029,-0.2055,-0.2058,-0.206,-0.2048,-0.2029,-0.2029,-0.2029,-0.2065,-0.2065,-0.2063,-0.2064,0,0,0,-0.2026,-0.2023,-0.2047,-0.2028,-0.2028,-0.2056,-0.2059,-0.2049,-0.206,-0.2029,-0.2029,-0.2065,-0.2064,-0.2063,-0.2063,-0.2123,0,0,0,-0.2026,-0.2007,-0.2045,-0.2029,-0.2028,-0.2039,-0.2047,-0.2061,-0.206,-0.2029,-0.2065,-0.2064,-0.2062,-0.2063,-0.2121,-0.2175,0,0,0,-0.2027,-0.2006,-0.2013,-0.2028,-0.2034,-0.204,-0.2052,-0.2062,-0.2058,-0.2065,-0.2063,-0.2062,-0.2063,-0.2118,-0.217,-0.2243,0,0,0,-0.2,-0.2002,-0.2012,-0.2025,-0.2034,-0.2072,-0.2053,-0.2072,-0.2082,-0.2064,-0.2062,-0.2063,-0.2118,-0.2167,-0.2239,-0.2274,-0.2294,0,0,-0.1993,-0.2,-0.2017,-0.2026,-0.2065,-0.2069,-0.2108,-0.2107,-0.2085,-0.2061,-0.2062,-0.2121,-0.217,-0.2242,-0.2326,-0.2344,0,0,0,-0.201,-0.2033,-0.2042,-0.2071,-0.2088,-0.2139,-0.2123,-0.2124,-0.2134,-0.2088,-0.2123,-0.2152,-0.2196,-0.2209,-0.2223,-0.2241,-0.2067,-0.2067,-0.2067,-0.1958,-0.2016,-0.2066,-0.2136,-0.2158,-0.2181,-0.2216,-0.2218,-0.2159,-0.2177,-0.2201,-0.23,-0.2313,-0.2324,-0.2341,-0.2185,-0.2186,-0.2186,-0.2186,-0.1995,-0.2036,-0.2128,-0.2202,-0.2251,-0.2284,-0.2315,-0.2296,-0.2325,-0.2262,-0.23,-0.2271,-0.2344,-0.2356,-0.219,-0.2189,-0.2189,-0.2188,-0.2188,-0.1966,-0.1998,-0.2076,-0.2197,-0.2303,-0.2352,-0.2446,-0.2445,-0.241,-0.2442,-0.2462,-0.2461,-0.2475,-0.2459,-0.246,-0.2461,-0.2461,-0.2461,-0.2462,-0.1878,-0.197,-0.2019,-0.2193,-0.2263,-0.2393,-0.2518,-0.2563,-0.2601,-0.256,-0.2559,-0.2519,-0.2384,-0.2377,-0.247,-0.2469,-0.2468,-0.2467,-0.2466,-0.179,-0.1819,-0.1889,-0.1965,-0.2169,-0.2236,-0.2482,-0.2626,-0.2724,-0.2743,-0.2712,-0.262,-0.2616,-0.2603,-0.2601,-0.2748,-0.2748,-0.2748,-0.2748,-0.1662,-0.1712,-0.171,-0.1777,-0.1936,-0.2118,-0.2209,-0.2456,-0.2693,-0.2774,-0.2838,-0.2767,-0.2755,-0.2753,-0.2737,-0.2735,-0.2913,-0.2913,-0.2913,-0.1543,-0.1581,-0.1499,-0.1596,-0.1772,-0.1905,-0.1906,-0.2232,-0.2728,-0.292,-0.2862,-0.2855,-0.2745,-0.2725,-0.2709,-0.2685,-0.2676,0,0]},{"header":{"parameterUnit":"m.s-1","parameterCategory":2,"la1":30.2992,"la2":30.254,"lo1":-89.0895,"lo2":-89.0443,"dy":0.0025,"dx":0.0025,"nx":19,"ny":19,"refTime":"2026-04-30T03:00:00:Z","depth":"0","parameterNumber":3,"parameterNumberName":"V-component_of_CURRENTS"},"data":[0,0,0,-0.0347,-0.0348,-0.0451,-0.0452,-0.0524,-0.0524,0,0,0,0,0,0,0,0,0,0,0,-0.0319,-0.032,-0.0347,-0.0349,-0.0451,-0.0452,-0.0524,-0.0524,0,0,0,0,0,0,0,0,0,0,0,-0.0319,-0.032,-0.032,-0.0349,-0.0451,-0.0452,-0.0524,-0.0465,0,0,0,0,0,0,0,0,0,0,-0.0374,-0.0341,-0.0319,-0.032,-0.0349,-0.0451,-0.0452,-0.0463,-0.0468,-0.0457,0,-0.0473,0,-0.0489,-0.0527,-0.0527,0,0,0,-0.0363,-0.0337,-0.037,-0.0321,-0.035,-0.0451,-0.0409,-0.0466,-0.0473,-0.0464,-0.0474,-0.0477,-0.049,-0.0527,-0.0527,-0.0538,-0.0537,0,0,-0.0357,-0.0331,-0.0366,-0.0374,-0.0376,-0.0405,-0.0412,-0.0471,-0.0471,-0.0474,-0.0479,-0.0492,-0.0527,-0.0527,-0.0538,-0.0537,0,0,0,-0.0331,-0.0327,-0.0361,-0.0371,-0.0388,-0.0408,-0.0415,-0.0469,-0.0483,-0.048,-0.0492,-0.0527,-0.0528,-0.0538,-0.0538,-0.052,0,0,0,-0.0329,-0.0311,-0.0359,-0.0344,-0.0388,-0.0435,-0.0412,-0.0479,-0.0486,-0.0492,-0.0527,-0.0528,-0.0538,-0.0538,-0.0521,-0.0521,0,0,0,-0.0315,-0.0309,-0.0323,-0.0342,-0.038,-0.0434,-0.0452,-0.0482,-0.0493,-0.0527,-0.0528,-0.0538,-0.0538,-0.0521,-0.0522,-0.0512,0,0,0,-0.0283,-0.0315,-0.0323,-0.036,-0.0379,-0.0432,-0.0452,-0.0492,-0.052,-0.0527,-0.0538,-0.0538,-0.0522,-0.0523,-0.0513,-0.0547,-0.0547,0,0,-0.0309,-0.0317,-0.0341,-0.0351,-0.0394,-0.0419,-0.0454,-0.0498,-0.0509,-0.0517,-0.0518,-0.052,-0.0522,-0.0512,-0.0528,-0.0529,0,0,0,-0.0341,-0.0365,-0.0377,-0.0405,-0.043,-0.0449,-0.0486,-0.049,-0.0507,-0.0522,-0.0519,-0.0521,-0.0515,-0.0537,-0.0537,-0.0355,-0.0536,-0.0536,-0.0536,-0.0393,-0.0399,-0.0435,-0.0448,-0.046,-0.0472,-0.048,-0.049,-0.05,-0.0495,-0.0504,-0.0484,-0.0507,-0.0508,-0.0319,-0.0499,-0.0498,-0.0498,-0.0498,-0.0481,-0.0523,-0.0488,-0.0524,-0.05,-0.0515,-0.0491,-0.0485,-0.0472,-0.0483,-0.0478,-0.0515,-0.0507,-0.0306,-0.0497,-0.0497,-0.0498,-0.0498,-0.0498,-0.0566,-0.0578,-0.0579,-0.0604,-0.0585,-0.0558,-0.0551,-0.0512,-0.047,-0.0455,-0.0487,-0.0488,-0.0313,-0.0456,-0.0456,-0.0456,-0.0456,-0.0456,-0.0456,-0.0665,-0.0656,-0.0705,-0.0695,-0.0697,-0.0671,-0.0597,-0.0567,-0.051,-0.0477,-0.0477,-0.0282,-0.0471,-0.0475,-0.0455,-0.0455,-0.0455,-0.0455,-0.0455,-0.0786,-0.0781,-0.0859,-0.0877,-0.086,-0.0831,-0.074,-0.0643,-0.0588,-0.0561,-0.0273,-0.0485,-0.0496,-0.0496,-0.0501,-0.0489,-0.0489,-0.0489,-0.0489,-0.0874,-0.0876,-0.0986,-0.1027,-0.1015,-0.0915,-0.0869,-0.0727,-0.0441,-0.0271,-0.018,-0.0162,-0.0169,-0.0159,-0.0167,-0.0164,-0.0065,-0.0064,-0.0063,-0.0951,-0.0981,-0.1066,-0.1095,-0.1073,-0.0985,-0.0918,-0.075,-0.03,-0.0023,0.009,0.0072,0.0121,0.0095,0.0126,0.01,0.0108,0,0]}],[{"header":{"parameterUnit":"m.s-1","parameterCategory":2,"la1":30.2992,"la2":30.254,"lo1":-89.0895,"lo2":-89.0443,"dy":0.0025,"dx":0.0025,"nx":19,"ny":19,"refTime":"2026-04-30T03:00:00:Z","depth":"2","parameterNumber":2,"parameterNumberName":"U-component_of_CURRENTS"},"data":[0,0,0,-0.1979,-0.1979,-0.202,-0.202,-0.2022,-0.2021,0,0,0,0,0,0,0,0,0,0,0,-0.1982,-0.1982,-0.1979,-0.1979,-0.202,-0.202,-0.2022,-0.2021,0,0,0,0,0,0,0,0,0,0,0,-0.1982,-0.1982,-0.1982,-0.1979,-0.202,-0.202,-0.2022,-0.201,0,0,0,0,0,0,0,0,0,0,-0.198,-0.1959,-0.1982,-0.1982,-0.198,-0.202,-0.202,-0.201,-0.2011,-0.1981,0,-0.1983,0,-0.1981,-0.2018,-0.2017,0,0,0,-0.2006,-0.1959,-0.1982,-0.1982,-0.198,-0.2019,-0.2009,-0.2011,-0.2011,-0.1981,-0.1983,-0.1983,-0.1981,-0.2017,-0.2017,-0.2022,-0.2022,0,0,-0.2003,-0.1978,-0.1982,-0.1982,-0.1982,-0.2008,-0.201,-0.2012,-0.2,-0.1983,-0.1983,-0.1981,-0.2017,-0.2016,-0.2022,-0.2022,0,0,0,-0.1979,-0.1976,-0.2,-0.1982,-0.1981,-0.2008,-0.2011,-0.2001,-0.2012,-0.1983,-0.1981,-0.2017,-0.2016,-0.2021,-0.2022,-0.2073,0,0,0,-0.1979,-0.196,-0.1999,-0.1982,-0.1981,-0.1991,-0.1999,-0.2013,-0.2013,-0.1981,-0.2017,-0.2015,-0.2021,-0.2021,-0.207,-0.2128,0,0,0,-0.1981,-0.1959,-0.1966,-0.1981,-0.1987,-0.1992,-0.2005,-0.2014,-0.2009,-0.2017,-0.2015,-0.202,-0.2021,-0.2068,-0.2123,-0.2193,0,0,0,-0.1953,-0.1955,-0.1965,-0.1978,-0.1986,-0.2022,-0.2005,-0.2024,-0.2034,-0.2016,-0.2021,-0.2022,-0.2068,-0.212,-0.2189,-0.2207,-0.2225,0,0,-0.1945,-0.1953,-0.197,-0.198,-0.2015,-0.2019,-0.2056,-0.2058,-0.204,-0.2019,-0.202,-0.2071,-0.2123,-0.2192,-0.2267,-0.2284,0,0,0,-0.1963,-0.1985,-0.1993,-0.2021,-0.2037,-0.2086,-0.207,-0.2072,-0.2087,-0.2044,-0.2078,-0.211,-0.2152,-0.2155,-0.2168,-0.2027,-0.2027,-0.2026,-0.2026,-0.1911,-0.1969,-0.2017,-0.2085,-0.2104,-0.2126,-0.2162,-0.2166,-0.2109,-0.2129,-0.2156,-0.2253,-0.2255,-0.2265,-0.2141,-0.2141,-0.2141,-0.2141,-0.2142,-0.1948,-0.1989,-0.2078,-0.2149,-0.2196,-0.2227,-0.2258,-0.2242,-0.2273,-0.2214,-0.225,-0.2213,-0.2283,-0.2146,-0.2145,-0.2144,-0.2144,-0.2144,-0.2143,-0.1921,-0.1952,-0.2029,-0.2146,-0.2249,-0.2296,-0.2389,-0.2391,-0.2357,-0.2389,-0.24,-0.2399,-0.2307,-0.2405,-0.2406,-0.2406,-0.2407,-0.2407,-0.2407,-0.1836,-0.1925,-0.1973,-0.2142,-0.221,-0.2338,-0.2464,-0.2506,-0.2538,-0.2494,-0.2493,-0.2343,-0.2335,-0.2324,-0.2416,-0.2415,-0.2413,-0.2413,-0.2412,-0.1749,-0.1778,-0.1846,-0.1921,-0.212,-0.2167,-0.2422,-0.2555,-0.2655,-0.2666,-0.255,-0.2544,-0.2542,-0.253,-0.2524,-0.2664,-0.2664,-0.2664,-0.2664,-0.1624,-0.1674,-0.1671,-0.1735,-0.1891,-0.2045,-0.2078,-0.2162,-0.2328,-0.2308,-0.2321,-0.2209,-0.2211,-0.2181,-0.2177,-0.216,-0.2204,-0.2202,-0.22,-0.1506,-0.1544,-0.1463,-0.1558,-0.1729,-0.1818,-0.1699,-0.166,-0.1872,-0.2163,-0.2037,-0.2672,-0.2544,-0.2531,-0.2512,-0.2495,-0.2479,0,0]},{"header":{"parameterUnit":"m.s-1","parameterCategory":2,"la1":30.2992,"la2":30.254,"lo1":-89.0895,"lo2":-89.0443,"dy":0.0025,"dx":0.0025,"nx":19,"ny":19,"refTime":"2026-04-30T03:00:00:Z","depth":"2","parameterNumber":3,"parameterNumberName":"V-component_of_CURRENTS"},"data":[0,0,0,-0.0282,-0.0284,-0.0381,-0.0381,-0.0445,-0.0446,0,0,0,0,0,0,0,0,0,0,0,-0.0256,-0.0257,-0.0282,-0.0284,-0.0381,-0.0381,-0.0445,-0.0446,0,0,0,0,0,0,0,0,0,0,0,-0.0256,-0.0257,-0.0257,-0.0284,-0.038,-0.0381,-0.0445,-0.039,0,0,0,0,0,0,0,0,0,0,-0.0304,-0.0274,-0.0256,-0.0257,-0.0284,-0.038,-0.0381,-0.0388,-0.0393,-0.038,0,-0.0397,0,-0.0412,-0.0447,-0.0447,0,0,0,-0.0296,-0.027,-0.0303,-0.0257,-0.0285,-0.038,-0.034,-0.0392,-0.0397,-0.0387,-0.0398,-0.04,-0.0413,-0.0447,-0.0448,-0.0461,-0.0461,0,0,-0.0291,-0.0267,-0.0299,-0.0306,-0.0311,-0.0337,-0.0343,-0.0396,-0.0396,-0.0398,-0.0402,-0.0414,-0.0448,-0.0448,-0.0461,-0.0461,0,0,0,-0.0267,-0.0263,-0.0296,-0.0303,-0.032,-0.034,-0.0347,-0.0394,-0.0408,-0.0403,-0.0415,-0.0448,-0.0448,-0.0461,-0.0461,-0.044,0,0,0,-0.0264,-0.0248,-0.0293,-0.0279,-0.032,-0.0363,-0.0343,-0.0404,-0.0411,-0.0415,-0.0448,-0.0448,-0.0461,-0.0461,-0.0441,-0.0444,0,0,0,-0.0252,-0.0246,-0.026,-0.0277,-0.0314,-0.0363,-0.038,-0.0407,-0.0417,-0.0447,-0.0448,-0.0461,-0.0461,-0.0441,-0.0444,-0.0433,0,0,0,-0.0221,-0.0252,-0.0259,-0.0296,-0.0313,-0.0361,-0.038,-0.0416,-0.0442,-0.0448,-0.0461,-0.0461,-0.0442,-0.0445,-0.0433,-0.0452,-0.0451,0,0,-0.0247,-0.0255,-0.0279,-0.0288,-0.0327,-0.0349,-0.038,-0.0421,-0.0434,-0.0442,-0.0443,-0.044,-0.0444,-0.0433,-0.0446,-0.0445,0,0,0,-0.0279,-0.0302,-0.0313,-0.0339,-0.036,-0.0376,-0.0409,-0.0412,-0.0431,-0.0447,-0.0444,-0.0448,-0.0441,-0.0454,-0.0453,-0.0461,-0.0461,-0.0461,-0.0461,-0.0333,-0.0337,-0.0371,-0.038,-0.0388,-0.0397,-0.0404,-0.0414,-0.0423,-0.0421,-0.0432,-0.0414,-0.0428,-0.0427,-0.0429,-0.0429,-0.0429,-0.0428,-0.0428,-0.0421,-0.0461,-0.0423,-0.0457,-0.043,-0.0442,-0.0415,-0.0411,-0.04,-0.0412,-0.0406,-0.0434,-0.0425,-0.0427,-0.0427,-0.0427,-0.0428,-0.0428,-0.0428,-0.0506,-0.0518,-0.0518,-0.0539,-0.0518,-0.0488,-0.0478,-0.0441,-0.0399,-0.0385,-0.0407,-0.0408,-0.0403,-0.0384,-0.0384,-0.0384,-0.0384,-0.0384,-0.0384,-0.0608,-0.0597,-0.0645,-0.0632,-0.0632,-0.0603,-0.0527,-0.0494,-0.0432,-0.0396,-0.0396,-0.04,-0.0401,-0.0401,-0.0384,-0.0384,-0.0384,-0.0384,-0.0384,-0.0729,-0.0724,-0.0802,-0.0818,-0.0797,-0.075,-0.0665,-0.0557,-0.0503,-0.0469,-0.0396,-0.0396,-0.0407,-0.0408,-0.0409,-0.0394,-0.0394,-0.0394,-0.0394,-0.0818,-0.082,-0.093,-0.0969,-0.0954,-0.083,-0.0743,-0.0522,-0.0376,-0.0276,-0.028,-0.0281,-0.0284,-0.0288,-0.0292,-0.029,-0.0244,-0.0243,-0.0243,-0.0896,-0.0925,-0.1012,-0.104,-0.1013,-0.0886,-0.0741,-0.0472,-0.0252,-0.023,-0.0181,-0.0398,-0.0414,-0.0413,-0.0433,-0.0434,-0.0436,0,0]}],[{"header":{"parameterUnit":"m.s-1","parameterCategory":2,"la1":30.2992,"la2":30.254,"lo1":-89.0895,"lo2":-89.0443,"dy":0.0025,"dx":0.0025,"nx":19,"ny":19,"refTime":"2026-04-30T03:00:00:Z","depth":"4","parameterNumber":2,"parameterNumberName":"U-component_of_CURRENTS"},"data":[0,0,0,-0.1031,-0.1032,-0.0987,-0.0987,-0.0953,-0.0954,0,0,0,0,0,0,0,0,0,0,0,-0.1022,-0.1023,-0.1031,-0.1032,-0.0988,-0.0986,-0.0953,-0.0954,0,0,0,0,0,0,0,0,0,0,0,-0.1022,-0.1023,-0.1023,-0.1032,-0.0988,-0.0986,-0.0953,-0.0966,0,0,0,0,0,0,0,0,0,0,-0.1,-0.1034,-0.1022,-0.1023,-0.1032,-0.0988,-0.0986,-0.0966,-0.0966,-0.0999,0,-0.1016,0,-0.1024,-0.0957,-0.0957,0,0,0,-0.0972,-0.1035,-0.1017,-0.1023,-0.1033,-0.0988,-0.0991,-0.0965,-0.0965,-0.0998,-0.1015,-0.1015,-0.1023,-0.0958,-0.0958,-0.0976,-0.0976,0,0,-0.0975,-0.1014,-0.1017,-0.1017,-0.1055,-0.0993,-0.099,-0.0964,-0.0984,-0.1015,-0.1014,-0.1023,-0.0958,-0.0958,-0.0976,-0.0976,0,0,0,-0.1022,-0.1017,-0.0996,-0.1018,-0.1031,-0.0993,-0.099,-0.0983,-0.0976,-0.1014,-0.1022,-0.0958,-0.0959,-0.0976,-0.0976,-0.1083,0,0,0,-0.102,-0.1048,-0.0998,-0.1021,-0.1032,-0.1013,-0.1011,-0.0975,-0.0974,-0.1023,-0.0958,-0.096,-0.0977,-0.0976,-0.1081,-0.1121,0,0,0,-0.1018,-0.1049,-0.1051,-0.1023,-0.1033,-0.1013,-0.1001,-0.0974,-0.0983,-0.0958,-0.096,-0.0977,-0.0976,-0.1079,-0.1117,-0.1214,0,0,0,-0.1045,-0.1063,-0.1052,-0.1068,-0.1034,-0.1009,-0.1,-0.0986,-0.0966,-0.0959,-0.0976,-0.0976,-0.1078,-0.1114,-0.121,-0.102,0,0,0,-0.1073,-0.1068,-0.1068,-0.1057,-0.1072,-0.1009,-0.1011,-0.099,-0.0966,-0.0978,-0.0977,-0.1082,-0.1117,-0.1213,-0.0987,0,0,0,0,-0.1077,-0.1086,-0.1084,-0.1096,-0.1072,-0.1066,-0.1031,-0.1023,-0.1024,-0.0965,-0.104,-0.1058,-0.1117,-0.0991,-0.0973,-0.0973,-0.0973,-0.0974,-0.0974,-0.1131,-0.1113,-0.1132,-0.112,-0.1123,-0.1101,-0.1091,-0.1071,-0.1056,-0.1071,-0.1116,-0.1216,-0.1081,-0.1082,-0.1082,-0.1083,-0.1083,-0.1083,-0.1084,-0.1163,-0.1151,-0.1172,-0.1192,-0.1193,-0.1204,-0.119,-0.1181,-0.1227,-0.1167,-0.1221,-0.1071,-0.1093,-0.1091,-0.109,-0.1089,-0.1088,-0.1087,-0.1087,-0.1176,-0.1165,-0.1204,-0.1247,-0.1287,-0.1285,-0.1306,-0.132,-0.133,-0.1368,-0.1261,-0.1295,-0.1324,-0.1423,-0.1424,-0.1424,-0.1425,-0.1425,-0.1425,-0.1154,-0.1188,-0.1231,-0.1296,-0.1331,-0.1371,-0.1401,-0.1409,-0.1443,-0.1349,-0.142,-0.1331,-0.132,-0.1342,-0.1435,-0.1433,-0.1432,-0.1431,-0.143,-0.1085,-0.115,-0.1191,-0.1241,-0.1314,-0.135,-0.1425,-0.1388,-0.1427,-0.1396,-0.134,-0.1342,-0.1295,-0.1286,-0.1305,-0.1391,-0.1389,-0.1387,0,-0.1025,-0.1068,-0.1087,-0.1133,-0.1188,-0.1281,-0.1261,-0.1276,-0.1308,-0.1279,-0.1439,-0.1378,-0.1376,-0.1321,-0.1309,-0.1329,0,0,0,-0.0941,-0.0968,-0.093,-0.1014,-0.1088,-0.1138,-0.1227,-0.1183,-0.1325,-0.125,-0.1336,-0.1349,-0.135,-0.1463,-0.1396,-0.1382,-0.1415,0,0]},{"header":{"parameterUnit":"m.s-1","parameterCategory":2,"la1":30.2992,"la2":30.254,"lo1":-89.0895,"lo2":-89.0443,"dy":0.0025,"dx":0.0025,"nx":19,"ny":19,"refTime":"2026-04-30T03:00:00:Z","depth":"4","parameterNumber":3,"parameterNumberName":"V-component_of_CURRENTS"},"data":[0,0,0,0.0167,0.0167,0.0219,0.022,0.0498,0.0501,0,0,0,0,0,0,0,0,0,0,0,0.017,0.017,0.0167,0.0167,0.0219,0.022,0.0497,0.0501,0,0,0,0,0,0,0,0,0,0,0,0.017,0.017,0.017,0.0167,0.0219,0.022,0.0497,0.0414,0,0,0,0,0,0,0,0,0,0,0.0341,0.0278,0.017,0.017,0.0167,0.0219,0.022,0.0408,0.0419,0.0523,0,0.0516,0,0.0495,0.0521,0.0522,0,0,0,0.0205,0.0268,0.0294,0.017,0.0167,0.0219,0.0206,0.0413,0.0426,0.0538,0.0519,0.0527,0.0499,0.0522,0.0524,0.0641,0.064,0,0,0.0202,0.018,0.0284,0.0301,0.0166,0.0204,0.0207,0.0419,0.0425,0.052,0.0532,0.0504,0.0524,0.0527,0.0642,0.0641,0,0,0,0.0168,0.0178,0.0195,0.0292,0.0273,0.0205,0.0209,0.0416,0.0424,0.0535,0.0507,0.0526,0.053,0.0643,0.0642,0.0528,0,0,0,0.0168,0.0155,0.0193,0.0181,0.0267,0.0308,0.0201,0.041,0.0431,0.0506,0.0526,0.0533,0.0644,0.0642,0.0534,0.0525,0,0,0,0.017,0.0155,0.0158,0.0179,0.0183,0.0303,0.0324,0.0413,0.0414,0.0522,0.0534,0.0645,0.0643,0.0538,0.0532,0.0507,0,0,0,0.0152,0.0135,0.0157,0.0143,0.0182,0.0209,0.0321,0.0367,0.0445,0.0528,0.0644,0.0642,0.054,0.0536,0.0511,0.0536,0,0,0,0.012,0.013,0.0126,0.0146,0.0147,0.0205,0.0222,0.037,0.0448,0.06,0.0601,0.0532,0.0533,0.0508,0.0402,0,0,0,0,0.0109,0.0102,0.0108,0.0114,0.0148,0.0183,0.0282,0.0313,0.0398,0.0475,0.0518,0.0523,0.051,0.0534,0.0631,0.0631,0.0631,0.0632,0.0632,0.0022,0.0056,0.0048,0.009,0.0114,0.0175,0.0203,0.0268,0.0356,0.0335,0.0417,0.031,0.0325,0.0383,0.0382,0.0382,0.0381,0.0381,0.0381,-0.0046,-0.0054,0.0001,0.0001,0.006,0.0084,0.0161,0.019,0.0234,0.0287,0.028,0.0396,0.0369,0.0371,0.0373,0.0374,0.0375,0.0376,0.0377,-0.0127,-0.0121,-0.0113,-0.0103,-0.0062,0.0016,0.0059,0.0115,0.0154,0.015,0.0214,0.0255,0.0282,0.0149,0.0149,0.0149,0.0148,0.0148,0.0148,-0.022,-0.0202,-0.0247,-0.0208,-0.02,-0.0134,-0.0008,0.0039,0.01,0.0119,0.014,0.0233,0.0241,0.027,0.0145,0.0145,0.0146,0.0146,0.0146,-0.0304,-0.0325,-0.0391,-0.0406,-0.036,-0.028,-0.014,0.0019,0.0043,0.0068,0.0105,0.0108,0.017,0.018,0.0211,0.0063,0.0063,0.0063,0,-0.038,-0.0388,-0.0499,-0.0544,-0.0508,-0.0368,-0.0234,-0.011,-0.0031,-0.0057,-0.0033,-0.0003,0.0004,0.0066,0.0075,0.0104,0,0,0,-0.0432,-0.0466,-0.0551,-0.0603,-0.0569,-0.0356,-0.0186,-0.014,-0.0035,0.0063,0.006,0.0061,0.0135,0.0136,0.024,0.0249,0.0304,0,0]}]]